Retour au catalogue

STARLINK-35601

ActifCommunicationsVLEO
NORAD 66149·PAYLOAD·🇺🇸 United States

Lancé Oct 25, 2025 depuis Cape Canaveral Space Force Station

Loading…

Prochains Passages (prochaines 24 heures)

TLE

FraisSource: CelesTrak SupGP

Époque: Sep 14, 2026, 22:54 UTC

1 66149C 25240D   26257.95465278  .00038726  00000+0  11440-2 0  2571
2 66149  53.1565 261.4247 0001339  94.3662  57.6798 15.34374502    12

Suivez STARLINK-35601 en temps réel avec AllMySat

Download on the App Store